Flag for U.S.A. Weather past 2 weeks in Atlanta, Georgia, U.S.A.

Now
68 °F

Partly sunny.


Feels Like: 68 °F
Forecast: 61 / 83 °F
Wind: 10 mph from Southeast

Location: Fulton County Airport-Brown Field

Current Time: May 24, 2015 at 9:44:19 AM

Latest Report: May 24, 2015 at 8:53 AM


Visibility: 10 mi

Pressure: 30.33 "Hg

Humidity: 73%

Dew point: 59 °F

Location of AtlantaLocation

Historic Weather in Atlanta — Graph

°F

Atlanta temperature yesterday

Maximum temperature yesterday: 82 °F (at 4:53 PM)
Minimum temperature yesterday: 53 °F (at 6:53 AM)
Average temperature yesterday: 68 °F

Past Weeks' High & Low Weather Summary

 TemperatureHumidityPressure
High89 °F (May 11, 4:53 PM)96% (May 18, 12:53 AM)30.37 "Hg (May 18, 12:53 AM)
Low51 °F (May 22, 5:53 AM)26% (May 13, 3:53 PM)29.88 "Hg (May 20, 7:53 PM)
Average73 °F65%30.13 "Hg
* Reported May 9 7:53 AM — May 24 7:53 AM, Atlanta, Weather by CustomWeather, © 2015

Note: Actual official high and low records may vary slightly from our data, if they occured in-between our weather recording intervals... More about our weather records

Advertising

Atlanta weather history for previous 24 hours

 ConditionsComfort  
Time TempWeatherWind HumidityBarometerVisibility
7:53 AM
Sun, May 24
65 °FSunny.5 mph78%30.32 "Hg10 mi
6:53 AM64 °FClear.5 mph78%30.31 "Hg10 mi
5:53 AM64 °FClear.6 mph75%30.30 "Hg10 mi
4:53 AM64 °FClear.5 mph70%30.29 "Hg10 mi
3:53 AM66 °FClear.7 mph65%30.27 "Hg10 mi
2:53 AM68 °FClear.8 mph57%30.26 "Hg10 mi
1:53 AM59 °FClear.No wind81%30.27 "Hg10 mi
12:53 AM59 °FClear.3 mph81%30.28 "Hg10 mi
11:53 PM
Sat, May 23
62 °FClear.3 mph75%30.28 "Hg10 mi
10:53 PM63 °FClear.No wind70%30.28 "Hg10 mi
9:53 PM67 °FClear.3 mph63%30.27 "Hg10 mi
8:53 PM76 °FSunny.3 mph39%30.26 "Hg10 mi
7:53 PM79 °FSunny.8 mph34%30.26 "Hg10 mi
6:53 PM81 °FSunny.10 mph32%30.27 "Hg10 mi
5:53 PM81 °FSunny.12 mph32%30.27 "Hg10 mi
4:53 PM82 °FSunny.14 mph32%30.28 "Hg10 mi
3:53 PM81 °FSunny.8 mph32%30.31 "Hg10 mi
2:53 PM80 °FSunny.7 mph31%30.32 "Hg10 mi
1:53 PM79 °FSunny.9 mph34%30.34 "Hg10 mi
12:53 PM77 °FSunny.13 mph37%30.34 "Hg10 mi
11:53 AM76 °FSunny.10 mph39%30.36 "Hg10 mi
10:53 AM73 °FSunny.10 mph53%30.36 "Hg10 mi
9:53 AM70 °FSunny.3 mph64%30.37 "Hg10 mi
Weather by CustomWeather, © 2015

See weather overviewHow to use our weather pages